{"data":{"norad_id":54031,"epoch":"2026-09-19T17:15:50.112000Z","epoch_age_seconds":85664,"freshness":"FRESH","line1":"1 54031U 22130A   26262.71933000 -.00000030  00000+0  00000+0 0  9994","line2":"2 54031  64.2103 311.2302 0013471 188.9341 171.1129  2.13101815 30707","mean_motion":2.13101815,"eccentricity":0.0013471,"inclination_deg":64.2103,"raan_deg":311.2302,"arg_perigee_deg":188.9341,"mean_anomaly_deg":171.1129,"bstar":0,"rev_number":3070,"period_min":675.73333432191,"perigee_km":19095.540310784,"apogee_km":19164.26406997,"semimajor_km":25508.039190377,"source":"CELESTRAK","updated_at":"2026-09-20T09:00:46.279470Z"}}